| time (UTC) | temp F | wind direction | speed knots | gust knots | rain 1hr in | rain 24hr in | rain mn in | humidity % | barometer mb |
| 20260506091618 | 69 | 184 | 4.3 | 7.0 | 0.00 | 0.00 | 0.00 | 83 | 1015.5 |
| 20260506091118 | 68 | 182 | 4.3 | 7.0 | 0.00 | 0.00 | 0.00 | 84 | 1015.4 |
| 20260506090617 | 68 | 176 | 4.3 | 7.0 | 0.00 | 0.00 | 0.00 | 84 | 1015.4 |
| 20260506090118 | 68 | 184 | 4.3 | 6.1 | 0.00 | 0.00 | 0.00 | 85 | 1015.4 |
| 20260506085618 | 68 | 186 | 3.5 | 6.1 | 0.00 | 0.00 | 0.00 | 85 | 1015.4 |
| 20260506085119 | 68 | 179 | 3.5 | 7.0 | 0.00 | 0.00 | 0.00 | 85 | 1015.4 |
| 20260506084615 | 68 | 155 | 4.3 | 7.0 | 0.00 | 0.00 | 0.00 | 85 | 1015.6 |
| 20260506084116 | 68 | 181 | 4.3 | 7.0 | 0.00 | 0.00 | 0.00 | 85 | 1015.6 |
| 20260506083616 | 68 | 184 | 4.3 | 7.0 | 0.00 | 0.00 | 0.00 | 84 | 1015.6 |
| 20260506083116 | 68 | 198 | 3.5 | 7.0 | 0.00 | 0.00 | 0.00 | 84 | 1015.5 |
| 20260506082615 | 68 | 180 | 3.5 | 6.1 | 0.00 | 0.00 | 0.00 | 84 | 1015.4 |
| 20260506082116 | 68 | 182 | 4.3 | 6.1 | 0.00 | 0.00 | 0.00 | 83 | 1015.5 |
| 20260506081615 | 68 | 158 | 5.2 | 7.8 | 0.00 | 0.00 | 0.00 | 83 | 1015.6 |
| 20260506081115 | 68 | 163 | 5.2 | 7.8 | 0.00 | 0.00 | 0.00 | 82 | 1015.6 |
| 20260506080616 | 68 | 188 | 5.2 | 7.8 | 0.00 | 0.00 | 0.00 | 82 | 1015.5 |
| 20260506080347 | 68 | 204 | 5.2 | 7.8 | 0.00 | 0.00 | 0.00 | 82 | 1015.5 |
| 20260506073113 | 68 | 175 | 4.3 | 7.0 | 0.00 | 0.00 | 0.00 | 80 | 1015.7 |
| 20260506072612 | 69 | 186 | 4.3 | 7.0 | 0.00 | 0.00 | 0.00 | 80 | 1015.7 |
| 20260506072112 | 69 | 226 | 4.3 | 6.1 | 0.00 | 0.00 | 0.00 | 80 | 1015.8 |
| 20260506071612 | 68 | 214 | 3.5 | 6.1 | 0.00 | 0.00 | 0.00 | 81 | 1015.8 |
| 20260506071116 | 68 | 175 | 3.5 | 6.1 | 0.00 | 0.00 | 0.00 | 82 | 1015.9 |
| 20260506071111 | 68 | 232 | 3.5 | 6.1 | 0.00 | 0.00 | 0.00 | 81 | 1015.8 |
| 20260506070112 | 68 | 191 | 3.5 | 7.0 | 0.00 | 0.00 | 0.00 | 82 | 1015.8 |
| 20260506062103 | 69 | 215 | 5.2 | 10.4 | 0.00 | 0.00 | 0.00 | 80 | 1015.7 |
| 20260506061606 | 69 | 171 | 5.2 | 8.7 | 0.00 | 0.00 | 0.00 | 80 | 1015.8 |
| 20260506061107 | 69 | 169 | 4.3 | 8.7 | 0.00 | 0.00 | 0.00 | 80 | 1015.9 |
| 20260506060605 | 69 | 161 | 4.3 | 8.7 | 0.00 | 0.00 | 0.00 | 80 | 1016.0 |
| 20260506051058 | 69 | 188 | 5.2 | 8.7 | 0.00 | 0.00 | 0.00 | 78 | 1016.7 |
| 20260506050557 | 69 | 171 | 5.2 | 8.7 | 0.00 | 0.00 | 0.00 | 77 | 1016.6 |
| 20260506045056 | 69 | 157 | 5.2 | 9.6 | 0.00 | 0.00 | 0.00 | 78 | 1016.7 |
| 20260506044556 | 69 | 173 | 5.2 | 9.6 | 0.00 | 0.00 | 0.00 | 78 | 1016.8 |
| 20260506044056 | 69 | 179 | 5.2 | 7.8 | 0.00 | 0.00 | 0.00 | 79 | 1016.9 |
| 20260506043555 | 69 | 184 | 5.2 | 9.6 | 0.00 | 0.00 | 0.00 | 79 | 1016.9 |
| 20260506043328 | 69 | 180 | 5.2 | 9.6 | 0.00 | 0.00 | 0.00 | 79 | 1016.9 |
| 20260506042556 | 69 | 177 | 6.1 | 9.6 | 0.00 | 0.00 | 0.00 | 78 | 1017.0 |
| 20260506042056 | 69 | 173 | 6.1 | 9.6 | 0.00 | 0.00 | 0.00 | 79 | 1017.1 |
| 20260506041555 | 69 | 214 | 5.2 | 9.6 | 0.00 | 0.00 | 0.00 | 78 | 1017.1 |
| 20260506041056 | 69 | 149 | 5.2 | 8.7 | 0.00 | 0.00 | 0.00 | 79 | 1017.1 |
| 20260506040827 | 69 | 157 | 4.3 | 8.7 | 0.00 | 0.00 | 0.00 | 78 | 1017.1 |
| 20260506040050 | 69 | 156 | 5.2 | 8.7 | 0.00 | 0.00 | 0.00 | 79 | 1017.1 |
| 20260506035551 | 69 | 188 | 5.2 | 8.7 | 0.00 | 0.00 | 0.00 | 78 | 1017.2 |
| 20260506035325 | 69 | 173 | 5.2 | 8.7 | 0.00 | 0.00 | 0.00 | 79 | 1017.2 |
| 20260506034548 | 69 | 156 | 5.2 | 8.7 | 0.00 | 0.00 | 0.00 | 78 | 1017.2 |
| 20260506034048 | 69 | 190 | 5.2 | 8.7 | 0.00 | 0.00 | 0.00 | 78 | 1017.1 |
| 20260506033548 | 69 | 155 | 5.2 | 10.4 | 0.00 | 0.00 | 0.00 | 79 | 1017.2 |
| 20260506033046 | 69 | 190 | 5.2 | 10.4 | 0.00 | 0.00 | 0.00 | 78 | 1017.2 |
| 20260506032546 | 69 | 149 | 5.2 | 8.7 | 0.00 | 0.00 | 0.00 | 78 | 1017.2 |
| 20260506032046 | 69 | 197 | 5.2 | 8.7 | 0.00 | 0.00 | 0.00 | 78 | 1017.2 |
| 20260506031544 | 69 | 161 | 5.2 | 8.7 | 0.00 | 0.00 | 0.00 | 78 | 1017.3 |
| 20260506031044 | 69 | 174 | 5.2 | 9.6 | 0.00 | 0.00 | 0.00 | 78 | 1017.3 |
| 20260506030546 | 69 | 177 | 5.2 | 9.6 | 0.00 | 0.00 | 0.00 | 78 | 1017.4 |
| 20260506030315 | 69 | 159 | 5.2 | 8.7 | 0.00 | 0.00 | 0.00 | 77 | 1017.4 |
| 20260506025544 | 69 | 172 | 5.2 | 11.3 | 0.00 | 0.00 | 0.00 | 77 | 1017.4 |
| 20260506025043 | 69 | 141 | 6.1 | 11.3 | 0.00 | 0.00 | 0.00 | 77 | 1017.4 |
| 20260506024538 | 69 | 184 | 5.2 | 8.7 | 0.00 | 0.00 | 0.00 | 77 | 1017.3 |
| 20260506024032 | 69 | 175 | 5.2 | 9.6 | 0.00 | 0.00 | 0.00 | 78 | 1017.4 |
| 20260506023525 | 69 | 165 | 5.2 | 9.6 | 0.00 | 0.00 | 0.00 | 78 | 1017.4 |
| 20260506023020 | 69 | 176 | 5.2 | 8.7 | 0.00 | 0.00 | 0.00 | 77 | 1017.4 |
| 20260506022514 | 69 | 176 | 5.2 | 10.4 | 0.00 | 0.00 | 0.00 | 77 | 1017.4 |
| 20260506022008 | 69 | 179 | 6.1 | 10.4 | 0.00 | 0.00 | 0.00 | 77 | 1017.5 |
| 20260506021502 | 69 | 164 | 6.1 | 8.7 | 0.00 | 0.00 | 0.00 | 77 | 1017.4 |
| 20260506020955 | 69 | 182 | 6.1 | 9.6 | 0.00 | 0.00 | 0.00 | 77 | 1017.3 |
| 20260506020449 | 69 | 165 | 6.1 | 9.6 | 0.00 | 0.00 | 0.00 | 77 | 1017.3 |
| 20260506020214 | 69 | 152 | 6.1 | 9.6 | 0.00 | 0.00 | 0.00 | 77 | 1017.3 |
| 20260506015437 | 69 | 180 | 6.1 | 9.6 | 0.00 | 0.00 | 0.00 | 77 | 1017.3 |
| 20260506014931 | 69 | 187 | 6.1 | 10.4 | 0.00 | 0.00 | 0.00 | 77 | 1017.2 |
| 20260506014428 | 69 | 186 | 6.1 | 11.3 | 0.00 | 0.00 | 0.00 | 77 | 1017.1 |
| 20260506013928 | 69 | 168 | 6.1 | 11.3 | 0.00 | 0.00 | 0.00 | 77 | 1017.1 |
| 20260506013428 | 69 | 181 | 5.2 | 9.6 | 0.00 | 0.00 | 0.00 | 79 | 1017.1 |
| 20260506012926 | 69 | 149 | 6.1 | 10.4 | 0.00 | 0.00 | 0.00 | 79 | 1017.0 |
| 20260506012428 | 69 | 161 | 5.2 | 10.4 | 0.00 | 0.00 | 0.00 | 78 | 1017.1 |
| 20260506012156 | 69 | 265 | 5.2 | 11.3 | 0.00 | 0.00 | 0.00 | 79 | 1017.0 |
| 20260506011655 | 69 | 180 | 5.2 | 11.3 | 0.00 | 0.00 | 0.00 | 79 | 1017.1 |
| 20260506010924 | 69 | 181 | 5.2 | 8.7 | 0.00 | 0.00 | 0.00 | 79 | 1017.1 |
| 20260506010424 | 69 | 153 | 5.2 | 9.6 | 0.00 | 0.00 | 0.00 | 79 | 1017.0 |
| 20260506005924 | 69 | 153 | 5.2 | 9.6 | 0.00 | 0.00 | 0.00 | 79 | 1017.0 |
| 20260506005424 | 69 | 174 | 5.2 | 9.6 | 0.00 | 0.00 | 0.00 | 79 | 1017.0 |
| 20260506004924 | 69 | 188 | 5.2 | 9.6 | 0.00 | 0.00 | 0.00 | 79 | 1017.0 |
| 20260506004424 | 69 | 180 | 5.2 | 8.7 | 0.00 | 0.00 | 0.00 | 79 | 1017.0 |
| 20260506003924 | 69 | 176 | 5.2 | 8.7 | 0.00 | 0.00 | 0.00 | 79 | 1016.9 |
| 20260506003424 | 69 | 187 | 5.2 | 8.7 | 0.00 | 0.00 | 0.00 | 80 | 1016.9 |
| 20260506002924 | 70 | 179 | 6.1 | 9.6 | 0.00 | 0.00 | 0.00 | 80 | 1016.9 |
| 20260506002424 | 70 | 174 | 5.2 | 9.6 | 0.00 | 0.00 | 0.00 | 81 | 1016.9 |
| 20260506001918 | 70 | 161 | 5.2 | 8.7 | 0.00 | 0.00 | 0.00 | 81 | 1017.0 |
| 20260506001412 | 70 | 238 | 5.2 | 8.7 | 0.00 | 0.00 | 0.00 | 81 | 1016.9 |
| 20260506000905 | 70 | 185 | 5.2 | 9.6 | 0.00 | 0.00 | 0.00 | 80 | 1016.8 |
| 20260506000631 | 70 | 178 | 5.2 | 7.8 | 0.00 | 0.00 | 0.00 | 79 | 1017.0 |
| 20260505235853 | 70 | 176 | 5.2 | 7.8 | 0.00 | 0.00 | 0.00 | 79 | 1016.9 |
| 20260505235347 | 70 | 169 | 5.2 | 7.8 | 0.00 | 0.00 | 0.00 | 78 | 1016.9 |
| 20260505235112 | 70 | 167 | 5.2 | 7.8 | 0.00 | 0.00 | 0.00 | 78 | 1016.9 |
| 20260505234606 | 70 | 198 | 5.2 | 8.7 | 0.00 | 0.00 | 0.00 | 77 | 1016.9 |
| 20260505233829 | 71 | 199 | 4.3 | 8.7 | 0.00 | 0.00 | 0.00 | 77 | 1016.9 |
| 20260505233324 | 71 | 166 | 4.3 | 7.8 | 0.00 | 0.00 | 0.00 | 76 | 1016.9 |
| 20260505232817 | 71 | 160 | 4.3 | 9.6 | 0.00 | 0.00 | 0.00 | 75 | 1016.9 |
| 20260505232413 | 71 | 172 | 3.5 | 9.6 | 0.00 | 0.00 | 0.00 | 73 | 1016.9 |
| 20260505231530 | 72 | 319 | 2.6 | 7.8 | 0.00 | 0.00 | 0.00 | 73 | 1016.8 |
| 20260505230753 | 72 | 267 | 3.5 | 7.8 | 0.00 | 0.00 | 0.00 | 73 | 1016.9 |
| 20260505230248 | 72 | 237 | 5.2 | 8.7 | 0.00 | 0.00 | 0.00 | 73 | 1016.8 |
| 20260505225742 | 71 | 242 | 4.3 | 8.7 | 0.00 | 0.00 | 0.00 | 72 | 1016.8 |
| 20260505225235 | 72 | 282 | 3.5 | 8.7 | 0.00 | 0.00 | 0.00 | 71 | 1016.8 |
| 20260505224730 | 72 | 226 | 3.5 | 8.7 | 0.00 | 0.00 | 0.00 | 71 | 1016.8 |
| 20260505224224 | 72 | 261 | 3.5 | 8.7 | 0.00 | 0.00 | 0.00 | 71 | 1016.9 |
| 20260505223718 | 72 | 138 | 3.5 | 9.6 | 0.00 | 0.00 | 0.00 | 71 | 1016.9 |
| 20260505223211 | 72 | 184 | 3.5 | 9.6 | 0.00 | 0.00 | 0.00 | 72 | 1017.0 |
| 20260505222706 | 73 | 84 | 2.6 | 7.0 | 0.00 | 0.00 | 0.00 | 70 | 1016.9 |
| 20260505222200 | 73 | 176 | 3.5 | 9.6 | 0.00 | 0.00 | 0.00 | 71 | 1017.0 |
| 20260505221654 | 73 | 231 | 3.5 | 9.6 | 0.00 | 0.00 | 0.00 | 71 | 1017.0 |
| 20260505221147 | 73 | 201 | 4.3 | 9.6 | 0.00 | 0.00 | 0.00 | 71 | 1016.8 |
| 20260505220641 | 73 | 199 | 5.2 | 11.3 | 0.00 | 0.00 | 0.00 | 72 | 1016.8 |
| 20260505220136 | 73 | 145 | 5.2 | 11.3 | 0.00 | 0.00 | 0.00 | 71 | 1016.7 |
| 20260505215629 | 73 | 176 | 5.2 | 9.6 | 0.00 | 0.00 | 0.00 | 71 | 1016.7 |
| 20260505215124 | 72 | 177 | 6.1 | 10.4 | 0.00 | 0.00 | 0.00 | 71 | 1016.7 |
| 20260505214618 | 72 | 174 | 6.1 | 10.4 | 0.00 | 0.00 | 0.00 | 70 | 1016.6 |
| 20260505214111 | 72 | 168 | 5.2 | 9.6 | 0.00 | 0.00 | 0.00 | 71 | 1016.6 |
| 20260505213606 | 73 | 166 | 5.2 | 9.6 | 0.00 | 0.00 | 0.00 | 69 | 1016.7 |
| 20260505213100 | 73 | 242 | 5.2 | 10.4 | 0.00 | 0.00 | 0.00 | 67 | 1016.6 |
| 20260505212554 | 73 | 153 | 5.2 | 10.4 | 0.00 | 0.00 | 0.00 | 69 | 1016.7 |
| 20260505212048 | 73 | 170 | 6.1 | 9.6 | 0.00 | 0.00 | 0.00 | 69 | 1016.8 |
| 20260505211546 | 72 | 143 | 7.0 | 14.8 | 0.00 | 0.00 | 0.00 | 71 | 1016.8 |
| 20260505211046 | 72 | 192 | 6.1 | 14.8 | 0.00 | 0.00 | 0.00 | 67 | 1016.9 |
| 20260505210546 | 73 | 234 | 6.1 | 10.4 | 0.00 | 0.00 | 0.00 | 68 | 1016.9 |
| 20260505210317 | 73 | 189 | 6.1 | 11.3 | 0.00 | 0.00 | 0.00 | 70 | 1016.9 |
| 20260505205546 | 73 | 193 | 7.0 | 11.3 | 0.00 | 0.00 | 0.00 | 72 | 1016.9 |
| 20260505205046 | 73 | 186 | 6.1 | 12.2 | 0.00 | 0.00 | 0.00 | 71 | 1017.0 |
| 20260505204817 | 73 | 170 | 5.2 | 12.2 | 0.00 | 0.00 | 0.00 | 69 | 1016.9 |
| 20260505204046 | 73 | 172 | 4.3 | 9.6 | 0.00 | 0.00 | 0.00 | 69 | 1016.9 |
| 20260505203546 | 74 | 90 | 4.3 | 9.6 | 0.00 | 0.00 | 0.00 | 70 | 1017.0 |
| 20260505203046 | 74 | 189 | 4.3 | 9.6 | 0.00 | 0.00 | 0.00 | 70 | 1017.0 |
| 20260505202546 | 73 | 208 | 4.3 | 11.3 | 0.00 | 0.00 | 0.00 | 71 | 1017.0 |
| 20260505202046 | 73 | 130 | 5.2 | 11.3 | 0.00 | 0.00 | 0.00 | 68 | 1017.0 |
| 20260505201818 | 74 | 6 | 5.2 | 9.6 | 0.00 | 0.00 | 0.00 | 69 | 1017.2 |
| 20260505201046 | 74 | 258 | 5.2 | 11.3 | 0.00 | 0.00 | 0.00 | 68 | 1017.3 |
| 20260505200549 | 73 | 201 | 5.2 | 11.3 | 0.00 | 0.00 | 0.00 | 67 | 1017.3 |
| 20260505200319 | 74 | 274 | 5.2 | 10.4 | 0.00 | 0.00 | 0.00 | 68 | 1017.3 |
| 20260505195548 | 74 | 175 | 5.2 | 10.4 | 0.00 | 0.00 | 0.00 | 67 | 1017.4 |
| 20260505195043 | 74 | 155 | 5.2 | 13.0 | 0.00 | 0.00 | 0.00 | 65 | 1017.5 |
| 20260505194537 | 74 | 168 | 5.2 | 13.0 | 0.00 | 0.00 | 0.00 | 67 | 1017.6 |
| 20260505194031 | 74 | 231 | 5.2 | 12.2 | 0.00 | 0.00 | 0.00 | 65 | 1017.7 |
| 20260505193524 | 74 | 319 | 5.2 | 12.2 | 0.00 | 0.00 | 0.00 | 65 | 1017.7 |
| 20260505193018 | 74 | 260 | 5.2 | 12.2 | 0.00 | 0.00 | 0.00 | 67 | 1017.8 |
| 20260505192512 | 74 | 156 | 4.3 | 11.3 | 0.00 | 0.00 | 0.00 | 68 | 1017.9 |
| 20260505192237 | 74 | 274 | 5.2 | 12.2 | 0.00 | 0.00 | 0.00 | 68 | 1017.8 |
| 20260505191500 | 74 | 266 | 6.1 | 12.2 | 0.00 | 0.00 | 0.00 | 66 | 1017.8 |
| 20260505190955 | 74 | 168 | 7.0 | 12.2 | 0.00 | 0.00 | 0.00 | 68 | 1017.8 |
| 20260505190448 | 74 | 166 | 7.0 | 11.3 | 0.00 | 0.00 | 0.00 | 65 | 1017.9 |
| 20260505190214 | 74 | 163 | 7.0 | 11.3 | 0.00 | 0.00 | 0.00 | 67 | 1017.8 |
| 20260505185437 | 74 | 200 | 6.1 | 12.2 | 0.00 | 0.00 | 0.00 | 67 | 1017.8 |
| 20260505184930 | 74 | 161 | 6.1 | 12.2 | 0.00 | 0.00 | 0.00 | 66 | 1018.0 |
| 20260505184424 | 74 | 170 | 7.0 | 12.2 | 0.00 | 0.00 | 0.00 | 65 | 1018.0 |
| 20260505183918 | 74 | 165 | 7.0 | 13.9 | 0.00 | 0.00 | 0.00 | 67 | 1018.0 |
| 20260505183643 | 74 | 184 | 7.8 | 13.9 | 0.00 | 0.00 | 0.00 | 66 | 1018.0 |
| 20260505182907 | 74 | 203 | 7.0 | 13.9 | 0.00 | 0.00 | 0.00 | 65 | 1018.1 |
| 20260505182401 | 74 | 168 | 6.1 | 12.2 | 0.00 | 0.00 | 0.00 | 67 | 1018.1 |
| 20260505181855 | 74 | 165 | 6.1 | 11.3 | 0.00 | 0.00 | 0.00 | 65 | 1018.1 |
| 20260505181620 | 74 | 195 | 5.2 | 9.6 | 0.00 | 0.00 | 0.00 | 70 | 1018.1 |
| 20260505180843 | 74 | 299 | 5.2 | 9.6 | 0.00 | 0.00 | 0.00 | 66 | 1018.1 |
| 20260505180337 | 74 | 169 | 5.2 | 9.6 | 0.00 | 0.00 | 0.00 | 70 | 1018.1 |
| 20260505175831 | 74 | 240 | 5.2 | 9.6 | 0.00 | 0.00 | 0.00 | 70 | 1018.1 |
| 20260505175326 | 74 | 140 | 5.2 | 13.9 | 0.00 | 0.00 | 0.00 | 68 | 1018.1 |
| 20260505174818 | 74 | 182 | 6.1 | 13.9 | 0.00 | 0.00 | 0.00 | 69 | 1018.1 |
| 20260505174312 | 73 | 159 | 6.1 | 10.4 | 0.00 | 0.00 | 0.00 | 71 | 1018.2 |
| 20260505173807 | 74 | 170 | 6.1 | 9.6 | 0.00 | 0.00 | 0.00 | 70 | 1018.3 |
| 20260505173305 | 74 | 174 | 5.2 | 9.6 | 0.00 | 0.00 | 0.00 | 70 | 1018.3 |
| 20260505172751 | 74 | 162 | 5.2 | 9.6 | 0.00 | 0.00 | 0.00 | 70 | 1018.2 |
| 20260505172244 | 73 | 197 | 5.2 | 10.4 | 0.00 | 0.00 | 0.00 | 70 | 1018.1 |
| 20260505171738 | 73 | 163 | 5.2 | 10.4 | 0.00 | 0.00 | 0.00 | 67 | 1018.2 |
| 20260505171233 | 74 | 186 | 6.1 | 10.4 | 0.00 | 0.00 | 0.00 | 69 | 1018.2 |
| 20260505170726 | 74 | 165 | 6.1 | 10.4 | 0.00 | 0.00 | 0.00 | 68 | 1018.3 |
| 20260505170220 | 74 | 178 | 5.2 | 12.2 | 0.00 | 0.00 | 0.00 | 67 | 1018.3 |
| 20260505165714 | 74 | 153 | 4.3 | 12.2 | 0.00 | 0.00 | 0.00 | 68 | 1018.5 |
| 20260505165208 | 74 | 166 | 4.3 | 8.7 | 0.00 | 0.00 | 0.00 | 69 | 1018.5 |
| 20260505164702 | 74 | 174 | 4.3 | 8.7 | 0.00 | 0.00 | 0.00 | 68 | 1018.6 |
| 20260505164157 | 74 | 168 | 4.3 | 7.8 | 0.00 | 0.00 | 0.00 | 65 | 1018.6 |
| 20260505163650 | 74 | 143 | 2.6 | 6.1 | 0.00 | 0.00 | 0.00 | 68 | 1018.6 |
| 20260505163144 | 74 | 169 | 2.6 | 7.8 | 0.00 | 0.00 | 0.00 | 66 | 1018.6 |
| 20260505162638 | 74 | 164 | 2.6 | 7.8 | 0.00 | 0.00 | 0.00 | 68 | 1018.6 |
| 20260505162133 | 74 | 222 | 3.5 | 7.0 | 0.00 | 0.00 | 0.00 | 65 | 1018.7 |
| 20260505161627 | 74 | 200 | 3.5 | 7.0 | 0.00 | 0.00 | 0.00 | 66 | 1018.6 |
| 20260505161120 | 74 | 263 | 3.5 | 7.0 | 0.00 | 0.00 | 0.00 | 67 | 1018.5 |
| 20260505160615 | 74 | 173 | 3.5 | 7.0 | 0.00 | 0.00 | 0.00 | 67 | 1018.5 |
| 20260505160109 | 74 | 154 | 2.6 | 6.1 | 0.00 | 0.00 | 0.00 | 66 | 1018.6 |
| 20260505153032 | 74 | 148 | 2.6 | 7.0 | 0.00 | 0.00 | 0.00 | 68 | 1018.8 |
| 20260505152757 | 73 | 331 | 2.6 | 5.2 | 0.00 | 0.00 | 0.00 | 66 | 1018.8 |
| 20260505152020 | 74 | 289 | 2.6 | 4.3 | 0.00 | 0.00 | 0.00 | 65 | 1018.8 |
| 20260505151746 | 74 | 299 | 2.6 | 6.1 | 0.00 | 0.00 | 0.00 | 66 | 1018.6 |
| 20260505151008 | 73 | 276 | 2.6 | 6.1 | 0.00 | 0.00 | 0.00 | 68 | 1018.7 |
| 20260505150502 | 73 | 282 | 2.6 | 6.1 | 0.00 | 0.00 | 0.00 | 64 | 1018.6 |
| 20260505150227 | 73 | 255 | 2.6 | 6.1 | 0.00 | 0.00 | 0.00 | 64 | 1018.6 |
| 20260505140350 | 73 | 232 | 2.6 | 5.2 | 0.00 | 0.00 | 0.00 | 66 | 1018.4 |
| 20260505130240 | 72 | 172 | 1.7 | 5.2 | 0.00 | 0.00 | 0.00 | 68 | 1018.3 |
| 20260505124720 | 71 | 168 | 1.7 | 4.3 | 0.00 | 0.00 | 0.00 | 72 | 1018.4 |
| 20260505124216 | 70 | 147 | 1.7 | 3.5 | 0.00 | 0.00 | 0.00 | 74 | 1018.4 |
| 20260505123709 | 70 | 176 | 1.7 | 3.5 | 0.00 | 0.00 | 0.00 | 78 | 1018.3 |
| 20260505123205 | 69 | 167 | 0.9 | 2.6 | 0.00 | 0.00 | 0.00 | 81 | 1018.3 |
| 20260505123158 | 68 | 161 | 0.9 | 2.6 | 0.00 | 0.00 | 0.00 | 83 | 1018.3 |
| 20260505122422 | 67 | 244 | 0.0 | 2.6 | 0.00 | 0.00 | 0.00 | 86 | 1018.3 |
| 20260505121644 | 66 | 202 | 0.0 | 1.7 | 0.00 | 0.00 | 0.00 | 89 | 1018.3 |
| 20260505121138 | 65 | 265 | 0.9 | 1.7 | 0.00 | 0.00 | 0.00 | 90 | 1018.3 |
| 20260505120633 | 65 | 263 | 0.9 | 1.7 | 0.00 | 0.00 | 0.00 | 92 | 1018.3 |
| 20260505120127 | 64 | 263 | 0.0 | 1.7 | 0.00 | 0.00 | 0.00 | 93 | 1018.2 |
| 20260505115851 | 63 | 236 | 0.0 | 0.9 | 0.00 | 0.00 | 0.00 | 94 | 1018.2 |
| 20260505115346 | 62 | 256 | 0.0 | 0.0 | 0.00 | 0.00 | 0.00 | 94 | 1018.2 |
| 20260505114608 | 62 | 256 | 0.0 | 0.0 | 0.00 | 0.00 | 0.00 | 94 | 1018.2 |
| 20260505114103 | 61 | 256 | 0.0 | 0.0 | 0.00 | 0.00 | 0.00 | 95 | 1018.1 |
| 20260505113828 | 60 | 256 | 0.0 | 0.0 | 0.00 | 0.00 | 0.00 | 94 | 1018.2 |
| 20260505113050 | 60 | 256 | 0.0 | 0.0 | 0.00 | 0.00 | 0.00 | 94 | 1018.1 |
| 20260505112544 | 59 | 256 | 0.0 | 0.0 | 0.00 | 0.00 | 0.00 | 94 | 1018.0 |
| 20260505112039 | 58 | 256 | 0.0 | 0.0 | 0.00 | 0.00 | 0.00 | 93 | 1018.0 |
| 20260505111533 | 58 | 256 | 0.0 | 0.0 | 0.00 | 0.00 | 0.00 | 93 | 1017.9 |
| 20260505111026 | 58 | 256 | 0.0 | 0.9 | 0.00 | 0.00 | 0.00 | 93 | 1017.9 |
| 20260505110520 | 58 | 159 | 0.0 | 1.7 | 0.00 | 0.00 | 0.00 | 93 | 1017.8 |
| 20260505101926 | 58 | 326 | 0.0 | 0.0 | 0.00 | 0.00 | 0.00 | 91 | 1017.3 |
| 20260505101420 | 58 | 326 | 0.0 | 0.9 | 0.00 | 0.00 | 0.00 | 91 | 1017.2 |
| 20260505100915 | 58 | 157 | 0.0 | 0.9 | 0.00 | 0.00 | 0.00 | 90 | 1017.1 |
| 20260505100408 | 58 | 253 | 0.0 | 0.9 | 0.00 | 0.00 | 0.00 | 90 | 1017.1 |
| 20260505095903 | 58 | 200 | 0.0 | 0.0 | 0.00 | 0.00 | 0.00 | 89 | 1017.1 |
| 20260505095357 | 59 | 199 | 0.0 | 0.0 | 0.00 | 0.00 | 0.00 | 89 | 1017.1 |
| 20260505094850 | 59 | 200 | 0.0 | 0.0 | 0.00 | 0.00 | 0.00 | 89 | 1017.1 |
| 20260505094345 | 59 | 199 | 0.0 | 0.0 | 0.00 | 0.00 | 0.00 | 89 | 1017.0 |
| 20260505094109 | 59 | 200 | 0.0 | 0.0 | 0.00 | 0.00 | 0.00 | 88 | 1016.9 |
| 20260505093332 | 60 | 200 | 0.0 | 0.0 | 0.00 | 0.00 | 0.00 | 88 | 1016.9 |
| 20260505092827 | 60 | 200 | 0.0 | 0.0 | 0.00 | 0.00 | 0.00 | 87 | 1016.9 |
| 20260505092321 | 60 | 200 | 0.0 | 0.0 | 0.00 | 0.00 | 0.00 | 86 | 1016.9 |